2020,11,29,00,00,00,-129.5,,,,,,,,,,,,,,
2020,11,29,00,01,00,-128.1,,,,,,,,,,,,,,
2020,11,29,00,02,00,-127.8,,,,,,,,,,,,,,
2020,11,29,00,03,00,-132.5,,,,,,,,,,,,,,
2020,11,29,00,04,00,-130.1,,,,,,,,,,,,,,
2020,11,29,00,05,00,-134.7,,,,,,,,,,,,,,
2020,11,29,00,06,00,-125.6,,,,,,,,,,,,,,
2020,11,29,00,07,00,-126.9,,,,,,,,,,,,,,
2020,11,29,00,08,00,-131.9,,,,,,,,,,,,,,
2020,11,29,00,09,00,-135.8,,,,,,,,,,,,,,
2020,11,29,00,10,00,-135.7,,,,,,,,,,,,,,
2020,11,29,00,11,00,-135.6,,,,,,,,,,,,,,
2020,11,29,00,12,00,-128.0,,,,,,,,,,,,,,
2020,11,29,00,13,00,-124.8,,,,,,,,,,,,,,
2020,11,29,00,14,00,-128.4,,,,,,,,,,,,,,
2020,11,29,00,15,00,-135.0,,,,,,,,,,,,,,
2020,11,29,00,16,00,-143.2,,,,,,,,,,,,,,
2020,11,29,00,17,00,-137.5,,,,,,,,,,,,,,
2020,11,29,00,18,00,-132.6,,,,,,,,,,,,,,
2020,11,29,00,19,00,-123.9,,,,,,,,,,,,,,
2020,11,29,00,20,00,-114.3,,,,,,,,,,,,,,
2020,11,29,00,21,00,-117.1,,,,,,,,,,,,,,
2020,11,29,00,22,00,-117.9,,,,,,,,,,,,,,
2020,11,29,00,23,00,-120.9,,,,,,,,,,,,,,
2020,11,29,00,24,00,-130.1,,,,,,,,,,,,,,
2020,11,29,00,25,00,-137.1,,,,,,,,,,,,,,
2020,11,29,00,26,00,-136.7,,,,,,,,,,,,,,
2020,11,29,00,27,00,-138.6,,,,,,,,,,,,,,
2020,11,29,00,28,00,-138.2,,,,,,,,,,,,,,
2020,11,29,00,29,00,-135.6,,,,,,,,,,,,,,
2020,11,29,00,30,00,-137.3,,,,,,,,,,,,,,
2020,11,29,00,31,00,-137.1,,,,,,,,,,,,,,
2020,11,29,00,32,00,-138.9,,,,,,,,,,,,,,
2020,11,29,00,33,00,-139.7,,,,,,,,,,,,,,
2020,11,29,00,34,00,-143.8,,,,,,,,,,,,,,
2020,11,29,00,35,00,-147.6,,,,,,,,,,,,,,
2020,11,29,00,36,00,-151.9,,,,,,,,,,,,,,
2020,11,29,00,37,00,-149.4,,,,,,,,,,,,,,
2020,11,29,00,38,00,-135.3,,,,,,,,,,,,,,
2020,11,29,00,39,00,-141.6,,,,,,,,,,,,,,
2020,11,29,00,40,00,-156.0,,,,,,,,,,,,,,
2020,11,29,00,41,00,-156.9,,,,,,,,,,,,,,
2020,11,29,00,42,00,-156.7,,,,,,,,,,,,,,
2020,11,29,00,43,00,-153.4,,,,,,,,,,,,,,
2020,11,29,00,44,00,-153.4,,,,,,,,,,,,,,
2020,11,29,00,45,00,-150.3,,,,,,,,,,,,,,
2020,11,29,00,46,00,-147.7,,,,,,,,,,,,,,
2020,11,29,00,47,00,-147.3,,,,,,,,,,,,,,
2020,11,29,00,48,00,-138.9,,,,,,,,,,,,,,
2020,11,29,00,49,00,-121.4,,,,,,,,,,,,,,
2020,11,29,00,50,00,-122.7,,,,,,,,,,,,,,
2020,11,29,00,51,00,-120.7,,,,,,,,,,,,,,
2020,11,29,00,52,00,-123.2,,,,,,,,,,,,,,
2020,11,29,00,53,00,-126.6,,,,,,,,,,,,,,
2020,11,29,00,54,00,-135.3,,,,,,,,,,,,,,
2020,11,29,00,55,00,-138.8,,,,,,,,,,,,,,
2020,11,29,00,56,00,-132.5,,,,,,,,,,,,,,
2020,11,29,00,57,00,-136.8,,,,,,,,,,,,,,
2020,11,29,00,58,00,-145.4,,,,,,,,,,,,,,
2020,11,29,00,59,00,-151.7,,,,,,,,,,,,,,
2020,11,29,01,00,00,-140.7,,,,,,,,,,,,,,
2020,11,29,01,01,00,-137.4,,,,,,,,,,,,,,
2020,11,29,01,02,00,-133.3,,,,,,,,,,,,,,
2020,11,29,01,03,00,-143.3,,,,,,,,,,,,,,
2020,11,29,01,04,00,-147.6,,,,,,,,,,,,,,
2020,11,29,01,05,00,-152.0,,,,,,,,,,,,,,
2020,11,29,01,06,00,-152.5,,,,,,,,,,,,,,
2020,11,29,01,07,00,-151.8,,,,,,,,,,,,,,
2020,11,29,01,08,00,-131.7,,,,,,,,,,,,,,
2020,11,29,01,09,00,-115.6,,,,,,,,,,,,,,
2020,11,29,01,10,00,-123.7,,,,,,,,,,,,,,
2020,11,29,01,11,00,-139.8,,,,,,,,,,,,,,
2020,11,29,01,12,00,-145.0,,,,,,,,,,,,,,
2020,11,29,01,13,00,-154.4,,,,,,,,,,,,,,
2020,11,29,01,14,00,-159.3,,,,,,,,,,,,,,
2020,11,29,01,15,00,-161.1,,,,,,,,,,,,,,
2020,11,29,01,16,00,-161.1,,,,,,,,,,,,,,
2020,11,29,01,17,00,-164.7,,,,,,,,,,,,,,
2020,11,29,01,18,00,-170.3,,,,,,,,,,,,,,
2020,11,29,01,19,00,-164.0,,,,,,,,,,,,,,
2020,11,29,01,20,00,-145.3,,,,,,,,,,,,,,
2020,11,29,01,21,00,-143.0,,,,,,,,,,,,,,
2020,11,29,01,22,00,-141.5,,,,,,,,,,,,,,
2020,11,29,01,23,00,-148.6,,,,,,,,,,,,,,
2020,11,29,01,24,00,-161.4,,,,,,,,,,,,,,
2020,11,29,01,25,00,-169.1,,,,,,,,,,,,,,
2020,11,29,01,26,00,-174.7,,,,,,,,,,,,,,
2020,11,29,01,27,00,-172.0,,,,,,,,,,,,,,
2020,11,29,01,28,00,-169.9,,,,,,,,,,,,,,
2020,11,29,01,29,00,-168.3,,,,,,,,,,,,,,
2020,11,29,01,30,00,-162.1,,,,,,,,,,,,,,
2020,11,29,01,31,00,-157.3,,,,,,,,,,,,,,
2020,11,29,01,32,00,-149.9,,,,,,,,,,,,,,
2020,11,29,01,33,00,-147.8,,,,,,,,,,,,,,
2020,11,29,01,34,00,-144.8,,,,,,,,,,,,,,
2020,11,29,01,35,00,-148.4,,,,,,,,,,,,,,
2020,11,29,01,36,00,-150.0,,,,,,,,,,,,,,
2020,11,29,01,37,00,-150.6,,,,,,,,,,,,,,
2020,11,29,01,38,00,-147.6,,,,,,,,,,,,,,
2020,11,29,01,39,00,-152.5,,,,,,,,,,,,,,
2020,11,29,01,40,00,-175.4,,,,,,,,,,,,,,
2020,11,29,01,41,00,-176.2,,,,,,,,,,,,,,
2020,11,29,01,42,00,-165.6,,,,,,,,,,,,,,
2020,11,29,01,43,00,-162.8,,,,,,,,,,,,,,
2020,11,29,01,44,00,-158.7,,,,,,,,,,,,,,
2020,11,29,01,45,00,-160.4,,,,,,,,,,,,,,
2020,11,29,01,46,00,-157.4,,,,,,,,,,,,,,
2020,11,29,01,47,00,-150.2,,,,,,,,,,,,,,
2020,11,29,01,48,00,-146.3,,,,,,,,,,,,,,
2020,11,29,01,49,00,-144.8,,,,,,,,,,,,,,
2020,11,29,01,50,00,-137.2,,,,,,,,,,,,,,
2020,11,29,01,51,00,-138.9,,,,,,,,,,,,,,
2020,11,29,01,52,00,-134.5,,,,,,,,,,,,,,
2020,11,29,01,53,00,-129.7,,,,,,,,,,,,,,
2020,11,29,01,54,00,-124.0,,,,,,,,,,,,,,
2020,11,29,01,55,00,-120.4,,,,,,,,,,,,,,
2020,11,29,01,56,00,-123.5,,,,,,,,,,,,,,
2020,11,29,01,57,00,-124.4,,,,,,,,,,,,,,
2020,11,29,01,58,00,-127.3,,,,,,,,,,,,,,
2020,11,29,01,59,00,-121.9,,,,,,,,,,,,,,
2020,11,29,02,00,00,-114.9,,,,,,,,,,,,,,
2020,11,29,02,01,00,-117.6,,,,,,,,,,,,,,
2020,11,29,02,02,00,-121.3,,,,,,,,,,,,,,
2020,11,29,02,03,00,-122.8,,,,,,,,,,,,,,
2020,11,29,02,04,00,-118.3,,,,,,,,,,,,,,
2020,11,29,02,05,00,-116.1,,,,,,,,,,,,,,
2020,11,29,02,06,00,-114.4,,,,,,,,,,,,,,
2020,11,29,02,07,00,-112.1,,,,,,,,,,,,,,
2020,11,29,02,08,00,-110.2,,,,,,,,,,,,,,
2020,11,29,02,09,00,-108.7,,,,,,,,,,,,,,
2020,11,29,02,10,00,-108.2,,,,,,,,,,,,,,
2020,11,29,02,11,00,-110.0,,,,,,,,,,,,,,
2020,11,29,02,12,00,-116.1,,,,,,,,,,,,,,
2020,11,29,02,13,00,-120.7,,,,,,,,,,,,,,
2020,11,29,02,14,00,-125.4,,,,,,,,,,,,,,
2020,11,29,02,15,00,-131.2,,,,,,,,,,,,,,
2020,11,29,02,16,00,-130.2,,,,,,,,,,,,,,
2020,11,29,02,17,00,-126.4,,,,,,,,,,,,,,
2020,11,29,02,18,00,-127.0,,,,,,,,,,,,,,
2020,11,29,02,19,00,-123.7,,,,,,,,,,,,,,
2020,11,29,02,20,00,-115.6,,,,,,,,,,,,,,
2020,11,29,02,21,00,-110.3,,,,,,,,,,,,,,
2020,11,29,02,22,00,-113.5,,,,,,,,,,,,,,
2020,11,29,02,23,00,-105.8,,,,,,,,,,,,,,
2020,11,29,02,24,00,-100.1,,,,,,,,,,,,,,
2020,11,29,02,25,00,-103.0,,,,,,,,,,,,,,
2020,11,29,02,26,00,-101.0,,,,,,,,,,,,,,
2020,11,29,02,27,00,-97.8,,,,,,,,,,,,,,
2020,11,29,02,28,00,-98.2,,,,,,,,,,,,,,
2020,11,29,02,29,00,-95.2,,,,,,,,,,,,,,
2020,11,29,02,30,00,-92.5,,,,,,,,,,,,,,
2020,11,29,02,31,00,-91.3,,,,,,,,,,,,,,
2020,11,29,02,32,00,-92.1,,,,,,,,,,,,,,
2020,11,29,02,33,00,-88.8,,,,,,,,,,,,,,
2020,11,29,02,34,00,-87.9,,,,,,,,,,,,,,
2020,11,29,02,35,00,-88.1,,,,,,,,,,,,,,
2020,11,29,02,36,00,-78.8,,,,,,,,,,,,,,
2020,11,29,02,37,00,-79.2,,,,,,,,,,,,,,
2020,11,29,02,38,00,-76.8,,,,,,,,,,,,,,
2020,11,29,02,39,00,-74.4,,,,,,,,,,,,,,
2020,11,29,02,40,00,-71.8,,,,,,,,,,,,,,
2020,11,29,02,41,00,-74.9,,,,,,,,,,,,,,
2020,11,29,02,42,00,-82.9,,,,,,,,,,,,,,
2020,11,29,02,43,00,-75.1,,,,,,,,,,,,,,
2020,11,29,02,44,00,-66.7,,,,,,,,,,,,,,
2020,11,29,02,45,00,-69.3,,,,,,,,,,,,,,
2020,11,29,02,46,00,-66.5,,,,,,,,,,,,,,
2020,11,29,02,47,00,-63.3,,,,,,,,,,,,,,
2020,11,29,02,48,00,-66.6,,,,,,,,,,,,,,
2020,11,29,02,49,00,-68.4,,,,,,,,,,,,,,
2020,11,29,02,50,00,-70.1,,,,,,,,,,,,,,
2020,11,29,02,51,00,-72.6,,,,,,,,,,,,,,
2020,11,29,02,52,00,-80.8,,,,,,,,,,,,,,
2020,11,29,02,53,00,-86.1,,,,,,,,,,,,,,
2020,11,29,02,54,00,-82.0,,,,,,,,,,,,,,
2020,11,29,02,55,00,-81.8,,,,,,,,,,,,,,
2020,11,29,02,56,00,-74.9,,,,,,,,,,,,,,
2020,11,29,02,57,00,-74.9,,,,,,,,,,,,,,
2020,11,29,02,58,00,-74.0,,,,,,,,,,,,,,
2020,11,29,02,59,00,-65.8,,,,,,,,,,,,,,
2020,11,29,03,00,00,-67.7,,,,,,,,,,,,,,
2020,11,29,03,01,00,-68.5,,,,,,,,,,,,,,
2020,11,29,03,02,00,-67.2,,,,,,,,,,,,,,
2020,11,29,03,03,00,-70.9,,,,,,,,,,,,,,
2020,11,29,03,04,00,-72.6,,,,,,,,,,,,,,
2020,11,29,03,05,00,-68.0,,,,,,,,,,,,,,
2020,11,29,03,06,00,-65.6,,,,,,,,,,,,,,
2020,11,29,03,07,00,-63.5,,,,,,,,,,,,,,
2020,11,29,03,08,00,-62.4,,,,,,,,,,,,,,
2020,11,29,03,09,00,-62.7,,,,,,,,,,,,,,
2020,11,29,03,10,00,-63.4,,,,,,,,,,,,,,
2020,11,29,03,11,00,-63.8,,,,,,,,,,,,,,
2020,11,29,03,12,00,-64.9,,,,,,,,,,,,,,
2020,11,29,03,13,00,-59.5,,,,,,,,,,,,,,
2020,11,29,03,14,00,-53.4,,,,,,,,,,,,,,
2020,11,29,03,15,00,-58.0,,,,,,,,,,,,,,
2020,11,29,03,16,00,-56.1,,,,,,,,,,,,,,
2020,11,29,03,17,00,-52.5,,,,,,,,,,,,,,
2020,11,29,03,18,00,-51.0,,,,,,,,,,,,,,
2020,11,29,03,19,00,-51.0,,,,,,,,,,,,,,
2020,11,29,03,20,00,-50.2,,,,,,,,,,,,,,
2020,11,29,03,21,00,-50.8,,,,,,,,,,,,,,
2020,11,29,03,22,00,-47.5,,,,,,,,,,,,,,
2020,11,29,03,23,00,-48.0,,,,,,,,,,,,,,
2020,11,29,03,24,00,-49.0,,,,,,,,,,,,,,
2020,11,29,03,25,00,-46.6,,,,,,,,,,,,,,
2020,11,29,03,26,00,-47.0,,,,,,,,,,,,,,
2020,11,29,03,27,00,-47.9,,,,,,,,,,,,,,
2020,11,29,03,28,00,-42.8,,,,,,,,,,,,,,
2020,11,29,03,29,00,-44.3,,,,,,,,,,,,,,
2020,11,29,03,30,00,-40.8,,,,,,,,,,,,,,
2020,11,29,03,31,00,-35.5,,,,,,,,,,,,,,
2020,11,29,03,32,00,-35.8,,,,,,,,,,,,,,
2020,11,29,03,33,00,-38.4,,,,,,,,,,,,,,
2020,11,29,03,34,00,-40.9,,,,,,,,,,,,,,
2020,11,29,03,35,00,-41.3,,,,,,,,,,,,,,
2020,11,29,03,36,00,-40.9,,,,,,,,,,,,,,
2020,11,29,03,37,00,-41.7,,,,,,,,,,,,,,
2020,11,29,03,38,00,-38.6,,,,,,,,,,,,,,
2020,11,29,03,39,00,-37.8,,,,,,,,,,,,,,
2020,11,29,03,40,00,-36.5,,,,,,,,,,,,,,
2020,11,29,03,41,00,-35.3,,,,,,,,,,,,,,
2020,11,29,03,42,00,-33.1,,,,,,,,,,,,,,
2020,11,29,03,43,00,-32.1,,,,,,,,,,,,,,
2020,11,29,03,44,00,-32.3,,,,,,,,,,,,,,
2020,11,29,03,45,00,-33.2,,,,,,,,,,,,,,
2020,11,29,03,46,00,-32.7,,,,,,,,,,,,,,
2020,11,29,03,47,00,-30.4,,,,,,,,,,,,,,
2020,11,29,03,48,00,-31.3,,,,,,,,,,,,,,
2020,11,29,03,49,00,-29.7,,,,,,,,,,,,,,
2020,11,29,03,50,00,-27.3,,,,,,,,,,,,,,
2020,11,29,03,51,00,-27.4,,,,,,,,,,,,,,
2020,11,29,03,52,00,-27.4,,,,,,,,,,,,,,
2020,11,29,03,53,00,-26.1,,,,,,,,,,,,,,
2020,11,29,03,54,00,-27.7,,,,,,,,,,,,,,
2020,11,29,03,55,00,-28.4,,,,,,,,,,,,,,
2020,11,29,03,56,00,-26.0,,,,,,,,,,,,,,
2020,11,29,03,57,00,-27.0,,,,,,,,,,,,,,
2020,11,29,03,58,00,-28.7,,,,,,,,,,,,,,
2020,11,29,03,59,00,-29.3,,,,,,,,,,,,,,
2020,11,29,04,00,00,-28.6,,,,,,,,,,,,,,
2020,11,29,04,01,00,-28.9,,,,,,,,,,,,,,
2020,11,29,04,02,00,-28.2,,,,,,,,,,,,,,
2020,11,29,04,03,00,-26.2,,,,,,,,,,,,,,
2020,11,29,04,04,00,-27.0,,,,,,,,,,,,,,
2020,11,29,04,05,00,-26.6,,,,,,,,,,,,,,
2020,11,29,04,06,00,-25.5,,,,,,,,,,,,,,
2020,11,29,04,07,00,-26.2,,,,,,,,,,,,,,
2020,11,29,04,08,00,-25.7,,,,,,,,,,,,,,
2020,11,29,04,09,00,-25.6,,,,,,,,,,,,,,
2020,11,29,04,10,00,-25.4,,,,,,,,,,,,,,
2020,11,29,04,11,00,-26.0,,,,,,,,,,,,,,
2020,11,29,04,12,00,-26.2,,,,,,,,,,,,,,
2020,11,29,04,13,00,-26.1,,,,,,,,,,,,,,
2020,11,29,04,14,00,-25.0,,,,,,,,,,,,,,
2020,11,29,04,15,00,-24.1,,,,,,,,,,,,,,
2020,11,29,04,16,00,-23.9,,,,,,,,,,,,,,
2020,11,29,04,17,00,-24.5,,,,,,,,,,,,,,
2020,11,29,04,18,00,-24.7,,,,,,,,,,,,,,
2020,11,29,04,19,00,-24.6,,,,,,,,,,,,,,
2020,11,29,04,20,00,-24.4,,,,,,,,,,,,,,
2020,11,29,04,21,00,-24.5,,,,,,,,,,,,,,
2020,11,29,04,22,00,-23.6,,,,,,,,,,,,,,
2020,11,29,04,23,00,-23.7,,,,,,,,,,,,,,
2020,11,29,04,24,00,-23.1,,,,,,,,,,,,,,
2020,11,29,04,25,00,-21.5,,,,,,,,,,,,,,
2020,11,29,04,26,00,-21.4,,,,,,,,,,,,,,
2020,11,29,04,27,00,-21.9,,,,,,,,,,,,,,
2020,11,29,04,28,00,-22.0,,,,,,,,,,,,,,
2020,11,29,04,29,00,-22.4,,,,,,,,,,,,,,
2020,11,29,04,30,00,-22.5,,,,,,,,,,,,,,
2020,11,29,04,31,00,-21.2,,,,,,,,,,,,,,
2020,11,29,04,32,00,-20.9,,,,,,,,,,,,,,
2020,11,29,04,33,00,-21.0,,,,,,,,,,,,,,
2020,11,29,04,34,00,-21.7,,,,,,,,,,,,,,
2020,11,29,04,35,00,-22.1,,,,,,,,,,,,,,
2020,11,29,04,36,00,-22.0,,,,,,,,,,,,,,
2020,11,29,04,37,00,-21.7,,,,,,,,,,,,,,
2020,11,29,04,38,00,-21.8,,,,,,,,,,,,,,
2020,11,29,04,39,00,-21.7,,,,,,,,,,,,,,
2020,11,29,04,40,00,-21.5,,,,,,,,,,,,,,
2020,11,29,04,41,00,-20.9,,,,,,,,,,,,,,
2020,11,29,04,42,00,-20.8,,,,,,,,,,,,,,
2020,11,29,04,43,00,-20.0,,,,,,,,,,,,,,
2020,11,29,04,44,00,-20.7,,,,,,,,,,,,,,
2020,11,29,04,45,00,-21.2,,,,,,,,,,,,,,
2020,11,29,04,46,00,-20.7,,,,,,,,,,,,,,
2020,11,29,04,47,00,-20.8,,,,,,,,,,,,,,
2020,11,29,04,48,00,-21.0,,,,,,,,,,,,,,
2020,11,29,04,49,00,-21.0,,,,,,,,,,,,,,
2020,11,29,04,50,00,-20.1,,,,,,,,,,,,,,
2020,11,29,04,51,00,-20.0,,,,,,,,,,,,,,
2020,11,29,04,52,00,-19.5,,,,,,,,,,,,,,
2020,11,29,04,53,00,-19.3,,,,,,,,,,,,,,
2020,11,29,04,54,00,-19.5,,,,,,,,,,,,,,
2020,11,29,04,55,00,-21.3,,,,,,,,,,,,,,
2020,11,29,04,56,00,-20.2,,,,,,,,,,,,,,
2020,11,29,04,57,00,-20.7,,,,,,,,,,,,,,
2020,11,29,04,58,00,-20.9,,,,,,,,,,,,,,
2020,11,29,04,59,00,-20.5,,,,,,,,,,,,,,
2020,11,29,05,00,00,-19.4,,,,,,,,,,,,,,
2020,11,29,05,01,00,-20.0,,,,,,,,,,,,,,
2020,11,29,05,02,00,-19.6,,,,,,,,,,,,,,
2020,11,29,05,03,00,-20.1,,,,,,,,,,,,,,
2020,11,29,05,04,00,-20.0,,,,,,,,,,,,,,
2020,11,29,05,05,00,-19.0,,,,,,,,,,,,,,
2020,11,29,05,06,00,-17.9,,,,,,,,,,,,,,
2020,11,29,05,07,00,-17.7,,,,,,,,,,,,,,
2020,11,29,05,08,00,-18.7,,,,,,,,,,,,,,
2020,11,29,05,09,00,-18.0,,,,,,,,,,,,,,
2020,11,29,05,10,00,-19.2,,,,,,,,,,,,,,
2020,11,29,05,11,00,-19.5,,,,,,,,,,,,,,
2020,11,29,05,12,00,-20.1,,,,,,,,,,,,,,
2020,11,29,05,13,00,-20.2,,,,,,,,,,,,,,
2020,11,29,05,14,00,-19.2,,,,,,,,,,,,,,
2020,11,29,05,15,00,-20.5,,,,,,,,,,,,,,
2020,11,29,05,16,00,-20.5,,,,,,,,,,,,,,
2020,11,29,05,17,00,-20.1,,,,,,,,,,,,,,
2020,11,29,05,18,00,-20.4,,,,,,,,,,,,,,
2020,11,29,05,19,00,-19.9,,,,,,,,,,,,,,
2020,11,29,05,20,00,-19.6,,,,,,,,,,,,,,
2020,11,29,05,21,00,-19.0,,,,,,,,,,,,,,
2020,11,29,05,22,00,-18.8,,,,,,,,,,,,,,
2020,11,29,05,23,00,-18.4,,,,,,,,,,,,,,
2020,11,29,05,24,00,-19.2,,,,,,,,,,,,,,
2020,11,29,05,25,00,-19.0,,,,,,,,,,,,,,
2020,11,29,05,26,00,-18.4,,,,,,,,,,,,,,
2020,11,29,05,27,00,-18.6,,,,,,,,,,,,,,
2020,11,29,05,28,00,-18.7,,,,,,,,,,,,,,
2020,11,29,05,29,00,-18.8,,,,,,,,,,,,,,
2020,11,29,05,30,00,-18.5,,,,,,,,,,,,,,
2020,11,29,05,31,00,-18.8,,,,,,,,,,,,,,
2020,11,29,05,32,00,-19.2,,,,,,,,,,,,,,
2020,11,29,05,33,00,-19.5,,,,,,,,,,,,,,
2020,11,29,05,34,00,-19.1,,,,,,,,,,,,,,
2020,11,29,05,35,00,-19.3,,,,,,,,,,,,,,
2020,11,29,05,36,00,-19.1,,,,,,,,,,,,,,
2020,11,29,05,37,00,-18.9,,,,,,,,,,,,,,
2020,11,29,05,38,00,-19.0,,,,,,,,,,,,,,
2020,11,29,05,39,00,-19.0,,,,,,,,,,,,,,
2020,11,29,05,40,00,-18.7,,,,,,,,,,,,,,
2020,11,29,05,41,00,-18.7,,,,,,,,,,,,,,
2020,11,29,05,42,00,-18.4,,,,,,,,,,,,,,
2020,11,29,05,43,00,-19.0,,,,,,,,,,,,,,
2020,11,29,05,44,00,-18.2,,,,,,,,,,,,,,
2020,11,29,05,45,00,-18.7,,,,,,,,,,,,,,
2020,11,29,05,46,00,-18.9,,,,,,,,,,,,,,
2020,11,29,05,47,00,-19.8,,,,,,,,,,,,,,
2020,11,29,05,48,00,-19.2,,,,,,,,,,,,,,
2020,11,29,05,49,00,-18.7,,,,,,,,,,,,,,
2020,11,29,05,50,00,-18.0,,,,,,,,,,,,,,
2020,11,29,05,51,00,-17.6,,,,,,,,,,,,,,
2020,11,29,05,52,00,-17.6,,,,,,,,,,,,,,
2020,11,29,05,53,00,-17.8,,,,,,,,,,,,,,
2020,11,29,05,54,00,-17.8,,,,,,,,,,,,,,
2020,11,29,05,55,00,-18.1,,,,,,,,,,,,,,
2020,11,29,05,56,00,-18.2,,,,,,,,,,,,,,
2020,11,29,05,57,00,-17.9,,,,,,,,,,,,,,
2020,11,29,05,58,00,-18.6,,,,,,,,,,,,,,
2020,11,29,05,59,00,-18.9,,,,,,,,,,,,,,
2020,11,29,06,00,00,,,,,,,,,,,,,,,
2020,11,29,06,01,00,,,,,,,,,,,,,,,
2020,11,29,06,02,00,-18.9,,,,,,,,,,,,,,
2020,11,29,06,03,00,-18.6,,,,,,,,,,,,,,
2020,11,29,06,04,00,-18.3,,,,,,,,,,,,,,
2020,11,29,06,05,00,-18.3,,,,,,,,,,,,,,
2020,11,29,06,06,00,-18.1,,,,,,,,,,,,,,
2020,11,29,06,07,00,-18.3,,,,,,,,,,,,,,
2020,11,29,06,08,00,-18.5,,,,,,,,,,,,,,
2020,11,29,06,09,00,-19.3,,,,,,,,,,,,,,
2020,11,29,06,10,00,-18.5,,,,,,,,,,,,,,
2020,11,29,06,11,00,-18.4,,,,,,,,,,,,,,
2020,11,29,06,12,00,-18.3,,,,,,,,,,,,,,
2020,11,29,06,13,00,-18.5,,,,,,,,,,,,,,
2020,11,29,06,14,00,-18.3,,,,,,,,,,,,,,
2020,11,29,06,15,00,-18.8,,,,,,,,,,,,,,
2020,11,29,06,16,00,-18.6,,,,,,,,,,,,,,
2020,11,29,06,17,00,-19.0,,,,,,,,,,,,,,
2020,11,29,06,18,00,-18.4,,,,,,,,,,,,,,
2020,11,29,06,19,00,-18.5,,,,,,,,,,,,,,
2020,11,29,06,20,00,-18.9,,,,,,,,,,,,,,
2020,11,29,06,21,00,-18.9,,,,,,,,,,,,,,
2020,11,29,06,22,00,-17.7,,,,,,,,,,,,,,
2020,11,29,06,23,00,-17.3,,,,,,,,,,,,,,
2020,11,29,06,24,00,-17.7,,,,,,,,,,,,,,
2020,11,29,06,25,00,-17.7,,,,,,,,,,,,,,
2020,11,29,06,26,00,-18.1,,,,,,,,,,,,,,
2020,11,29,06,27,00,-17.9,,,,,,,,,,,,,,
2020,11,29,06,28,00,-18.1,,,,,,,,,,,,,,
2020,11,29,06,29,00,-18.2,,,,,,,,,,,,,,
2020,11,29,06,30,00,-18.3,,,,,,,,,,,,,,
2020,11,29,06,31,00,-18.2,,,,,,,,,,,,,,
2020,11,29,06,32,00,-17.9,,,,,,,,,,,,,,
2020,11,29,06,33,00,-17.5,,,,,,,,,,,,,,
2020,11,29,06,34,00,-17.5,,,,,,,,,,,,,,
2020,11,29,06,35,00,-18.4,,,,,,,,,,,,,,
2020,11,29,06,36,00,-18.4,,,,,,,,,,,,,,
2020,11,29,06,37,00,-17.8,,,,,,,,,,,,,,
2020,11,29,06,38,00,-16.9,,,,,,,,,,,,,,
2020,11,29,06,39,00,-18.3,,,,,,,,,,,,,,
2020,11,29,06,40,00,-18.4,,,,,,,,,,,,,,
2020,11,29,06,41,00,-18.9,,,,,,,,,,,,,,
2020,11,29,06,42,00,-18.5,,,,,,,,,,,,,,
2020,11,29,06,43,00,-18.5,,,,,,,,,,,,,,
2020,11,29,06,44,00,-18.2,,,,,,,,,,,,,,
2020,11,29,06,45,00,-18.8,,,,,,,,,,,,,,
2020,11,29,06,46,00,-18.7,,,,,,,,,,,,,,
2020,11,29,06,47,00,-18.6,,,,,,,,,,,,,,
2020,11,29,06,48,00,-18.8,,,,,,,,,,,,,,
2020,11,29,06,49,00,-18.6,,,,,,,,,,,,,,
2020,11,29,06,50,00,-18.5,,,,,,,,,,,,,,
2020,11,29,06,51,00,,,,,,,,,,,,,,,
2020,11,29,06,52,00,,,,,,,,,,,,,,,
2020,11,29,06,53,00,-19.0,,,,,,,,,,,,,,
2020,11,29,06,54,00,-20.1,,,,,,,,,,,,,,
2020,11,29,06,55,00,-19.7,,,,,,,,,,,,,,
2020,11,29,06,56,00,-19.2,,,,,,,,,,,,,,
2020,11,29,06,57,00,-19.2,,,,,,,,,,,,,,
2020,11,29,06,58,00,-19.0,,,,,,,,,,,,,,
2020,11,29,06,59,00,,,,,,,,,,,,,,,
2020,11,29,07,00,00,,,,,,,,,,,,,,,
2020,11,29,07,01,00,-19.2,,,,,,,,,,,,,,
2020,11,29,07,02,00,-19.3,,,,,,,,,,,,,,
2020,11,29,07,03,00,-19.7,,,,,,,,,,,,,,
2020,11,29,07,04,00,-19.8,,,,,,,,,,,,,,
2020,11,29,07,05,00,-19.9,,,,,,,,,,,,,,
2020,11,29,07,06,00,-19.9,,,,,,,,,,,,,,
2020,11,29,07,07,00,-19.8,,,,,,,,,,,,,,
2020,11,29,07,08,00,-19.8,,,,,,,,,,,,,,
2020,11,29,07,09,00,-20.2,,,,,,,,,,,,,,
2020,11,29,07,10,00,-19.8,,,,,,,,,,,,,,
2020,11,29,07,11,00,-19.2,,,,,,,,,,,,,,
2020,11,29,07,12,00,-20.9,,,,,,,,,,,,,,
2020,11,29,07,13,00,-20.4,,,,,,,,,,,,,,
2020,11,29,07,14,00,-20.2,,,,,,,,,,,,,,
2020,11,29,07,15,00,-20.4,,,,,,,,,,,,,,
2020,11,29,07,16,00,-18.7,,,,,,,,,,,,,,
2020,11,29,07,17,00,,,,,,,,,,,,,,,
2020,11,29,07,18,00,,,,,,,,,,,,,,,
2020,11,29,07,19,00,-19.0,,,,,,,,,,,,,,
2020,11,29,07,20,00,-19.2,,,,,,,,,,,,,,
2020,11,29,07,21,00,-19.5,,,,,,,,,,,,,,
2020,11,29,07,22,00,-19.6,,,,,,,,,,,,,,
2020,11,29,07,23,00,-18.7,,,,,,,,,,,,,,
2020,11,29,07,24,00,-19.1,,,,,,,,,,,,,,
2020,11,29,07,25,00,-20.1,,,,,,,,,,,,,,
2020,11,29,07,26,00,-19.7,,,,,,,,,,,,,,
2020,11,29,07,27,00,-18.0,,,,,,,,,,,,,,
2020,11,29,07,28,00,-18.5,,,,,,,,,,,,,,
2020,11,29,07,29,00,-18.4,,,,,,,,,,,,,,
2020,11,29,07,30,00,-17.7,,,,,,,,,,,,,,
2020,11,29,07,31,00,-17.2,,,,,,,,,,,,,,
2020,11,29,07,32,00,-18.9,,,,,,,,,,,,,,
2020,11,29,07,33,00,-19.3,,,,,,,,,,,,,,
2020,11,29,07,34,00,-17.9,,,,,,,,,,,,,,
2020,11,29,07,35,00,-17.9,,,,,,,,,,,,,,
2020,11,29,07,36,00,-18.5,,,,,,,,,,,,,,
2020,11,29,07,37,00,-18.7,,,,,,,,,,,,,,
2020,11,29,07,38,00,-19.1,,,,,,,,,,,,,,
2020,11,29,07,39,00,-18.9,,,,,,,,,,,,,,
2020,11,29,07,40,00,-19.1,,,,,,,,,,,,,,
2020,11,29,07,41,00,-19.9,,,,,,,,,,,,,,
2020,11,29,07,42,00,-18.8,,,,,,,,,,,,,,
2020,11,29,07,43,00,-19.6,,,,,,,,,,,,,,
2020,11,29,07,44,00,-19.8,,,,,,,,,,,,,,
2020,11,29,07,45,00,-18.6,,,,,,,,,,,,,,
2020,11,29,07,46,00,-19.4,,,,,,,,,,,,,,
2020,11,29,07,47,00,-19.0,,,,,,,,,,,,,,
2020,11,29,07,48,00,-19.0,,,,,,,,,,,,,,
2020,11,29,07,49,00,-19.2,,,,,,,,,,,,,,
2020,11,29,07,50,00,-19.2,,,,,,,,,,,,,,
2020,11,29,07,51,00,-19.7,,,,,,,,,,,,,,
2020,11,29,07,52,00,-19.7,,,,,,,,,,,,,,
2020,11,29,07,53,00,-19.6,,,,,,,,,,,,,,
2020,11,29,07,54,00,-19.1,,,,,,,,,,,,,,
2020,11,29,07,55,00,-19.1,,,,,,,,,,,,,,
2020,11,29,07,56,00,-19.3,,,,,,,,,,,,,,
2020,11,29,07,57,00,-20.1,,,,,,,,,,,,,,
2020,11,29,07,58,00,-18.9,,,,,,,,,,,,,,
2020,11,29,07,59,00,-19.4,,,,,,,,,,,,,,
2020,11,29,08,00,00,-20.3,,,,,,,,,,,,,,
2020,11,29,08,01,00,-18.8,,,,,,,,,,,,,,
2020,11,29,08,02,00,-19.3,,,,,,,,,,,,,,
2020,11,29,08,03,00,-20.2,,,,,,,,,,,,,,
2020,11,29,08,04,00,-19.3,,,,,,,,,,,,,,
2020,11,29,08,05,00,-19.6,,,,,,,,,,,,,,
2020,11,29,08,06,00,-18.8,,,,,,,,,,,,,,
2020,11,29,08,07,00,-18.9,,,,,,,,,,,,,,
2020,11,29,08,08,00,-19.3,,,,,,,,,,,,,,
2020,11,29,08,09,00,-19.3,,,,,,,,,,,,,,
2020,11,29,08,10,00,,,,,,,,,,,,,,,
2020,11,29,08,11,00,,,,,,,,,,,,,,,
2020,11,29,08,12,00,-18.7,,,,,,,,,,,,,,
2020,11,29,08,13,00,-18.4,,,,,,,,,,,,,,
2020,11,29,08,14,00,-18.4,,,,,,,,,,,,,,
2020,11,29,08,15,00,-19.1,,,,,,,,,,,,,,
2020,11,29,08,16,00,-18.3,,,,,,,,,,,,,,
2020,11,29,08,17,00,-19.1,,,,,,,,,,,,,,
2020,11,29,08,18,00,,,,,,,,,,,,,,,
2020,11,29,08,19,00,,,,,,,,,,,,,,,
2020,11,29,08,20,00,-19.8,,,,,,,,,,,,,,
2020,11,29,08,21,00,-20.0,,,,,,,,,,,,,,
2020,11,29,08,22,00,-18.4,,,,,,,,,,,,,,
2020,11,29,08,23,00,-19.7,,,,,,,,,,,,,,
2020,11,29,08,24,00,-18.5,,,,,,,,,,,,,,
2020,11,29,08,25,00,-19.7,,,,,,,,,,,,,,
2020,11,29,08,26,00,-19.6,,,,,,,,,,,,,,
2020,11,29,08,27,00,-20.4,,,,,,,,,,,,,,
2020,11,29,08,28,00,-19.4,,,,,,,,,,,,,,
2020,11,29,08,29,00,-19.5,,,,,,,,,,,,,,
2020,11,29,08,30,00,-19.8,,,,,,,,,,,,,,
2020,11,29,08,31,00,-19.2,,,,,,,,,,,,,,
2020,11,29,08,32,00,-20.4,,,,,,,,,,,,,,
2020,11,29,08,33,00,-18.8,,,,,,,,,,,,,,
2020,11,29,08,34,00,-19.7,,,,,,,,,,,,,,
2020,11,29,08,35,00,-19.8,,,,,,,,,,,,,,
2020,11,29,08,36,00,-19.9,,,,,,,,,,,,,,
2020,11,29,08,37,00,-19.4,,,,,,,,,,,,,,
2020,11,29,08,38,00,-18.6,,,,,,,,,,,,,,
2020,11,29,08,39,00,-18.9,,,,,,,,,,,,,,
2020,11,29,08,40,00,-20.0,,,,,,,,,,,,,,
2020,11,29,08,41,00,-20.7,,,,,,,,,,,,,,
2020,11,29,08,42,00,-20.5,,,,,,,,,,,,,,
2020,11,29,08,43,00,-20.2,,,,,,,,,,,,,,
2020,11,29,08,44,00,-20.4,,,,,,,,,,,,,,
2020,11,29,08,45,00,-20.1,,,,,,,,,,,,,,
2020,11,29,08,46,00,-20.6,,,,,,,,,,,,,,
2020,11,29,08,47,00,-20.3,,,,,,,,,,,,,,
2020,11,29,08,48,00,-20.3,,,,,,,,,,,,,,
2020,11,29,08,49,00,-20.0,,,,,,,,,,,,,,
2020,11,29,08,50,00,-19.5,,,,,,,,,,,,,,
2020,11,29,08,51,00,-20.8,,,,,,,,,,,,,,
2020,11,29,08,52,00,-21.7,,,,,,,,,,,,,,
2020,11,29,08,53,00,-23.0,,,,,,,,,,,,,,
2020,11,29,08,54,00,-21.7,,,,,,,,,,,,,,
2020,11,29,08,55,00,-22.0,,,,,,,,,,,,,,
2020,11,29,08,56,00,-21.1,,,,,,,,,,,,,,
2020,11,29,08,57,00,-21.4,,,,,,,,,,,,,,
2020,11,29,08,58,00,-22.0,,,,,,,,,,,,,,
2020,11,29,08,59,00,-21.9,,,,,,,,,,,,,,
2020,11,29,09,00,00,-21.6,,,,,,,,,,,,,,
2020,11,29,09,01,00,,,,,,,,,,,,,,,
2020,11,29,09,02,00,,,,,,,,,,,,,,,
2020,11,29,09,03,00,-22.3,,,,,,,,,,,,,,
2020,11,29,09,04,00,-23.4,,,,,,,,,,,,,,
2020,11,29,09,05,00,-24.4,,,,,,,,,,,,,,
2020,11,29,09,06,00,-24.2,,,,,,,,,,,,,,
2020,11,29,09,07,00,-25.3,,,,,,,,,,,,,,
2020,11,29,09,08,00,-25.3,,,,,,,,,,,,,,
2020,11,29,09,09,00,-24.1,,,,,,,,,,,,,,
2020,11,29,09,10,00,-24.1,,,,,,,,,,,,,,
2020,11,29,09,11,00,-21.7,,,,,,,,,,,,,,
2020,11,29,09,12,00,-21.5,,,,,,,,,,,,,,
2020,11,29,09,13,00,-23.5,,,,,,,,,,,,,,
2020,11,29,09,14,00,-22.4,,,,,,,,,,,,,,
2020,11,29,09,15,00,-22.9,,,,,,,,,,,,,,
2020,11,29,09,16,00,-24.2,,,,,,,,,,,,,,
2020,11,29,09,17,00,-24.1,,,,,,,,,,,,,,
2020,11,29,09,18,00,-23.9,,,,,,,,,,,,,,
2020,11,29,09,19,00,-24.8,,,,,,,,,,,,,,
2020,11,29,09,20,00,-25.4,,,,,,,,,,,,,,
2020,11,29,09,21,00,-23.6,,,,,,,,,,,,,,
2020,11,29,09,22,00,-23.4,,,,,,,,,,,,,,
2020,11,29,09,23,00,-24.3,,,,,,,,,,,,,,
2020,11,29,09,24,00,-24.7,,,,,,,,,,,,,,
2020,11,29,09,25,00,-23.2,,,,,,,,,,,,,,
2020,11,29,09,26,00,-27.1,,,,,,,,,,,,,,
2020,11,29,09,27,00,-24.4,,,,,,,,,,,,,,
2020,11,29,09,28,00,-24.8,,,,,,,,,,,,,,
2020,11,29,09,29,00,-24.1,,,,,,,,,,,,,,
2020,11,29,09,30,00,-25.0,,,,,,,,,,,,,,
2020,11,29,09,31,00,-26.8,,,,,,,,,,,,,,
2020,11,29,09,32,00,-21.7,,,,,,,,,,,,,,
2020,11,29,09,33,00,-25.5,,,,,,,,,,,,,,
2020,11,29,09,34,00,-24.1,,,,,,,,,,,,,,
2020,11,29,09,35,00,-23.3,,,,,,,,,,,,,,
2020,11,29,09,36,00,-21.4,,,,,,,,,,,,,,
2020,11,29,09,37,00,-23.6,,,,,,,,,,,,,,
2020,11,29,09,38,00,-21.5,,,,,,,,,,,,,,
2020,11,29,09,39,00,-24.9,,,,,,,,,,,,,,
2020,11,29,09,40,00,-21.6,,,,,,,,,,,,,,
2020,11,29,09,41,00,-24.5,,,,,,,,,,,,,,
2020,11,29,09,42,00,-23.5,,,,,,,,,,,,,,